Theta_e
295 294 294 294 295 295 295 295 295 295 295 294 295 294 294 294 294 294 293 293 293 292 292 292 292 292 291 291 290 289 289 288 287 287 286 286 286 285 285 286 285 286 285 285 284 284 283 283 283 283 283 283 283 282 282 282 281 281 280 280 280 280 280 280 281 282 282 281 280 280 280 280 280 280 278 278 279 279 280 279 279 279 279 280 280
294 294 294 294 294 294 294 294 294 294 294 294 294 294 294 294 294 294 293 293 293 292 292 292 292 292 291 290 290 289 289 289 288 287 286 286 285 285 285 285 285 285 285 285 284 284 283 283 283 283 283 283 283 282 282 281 281 281 280 280 280 280 280 280 279 279 280 280 279 278 278 278 278 279 278 277 277 278 279 279 278 278 278 278 278
294 294 294 294 294 294 293 293 293 293 293 293 294 294 294 294 294 293 293 293 292 292 292 292 291 291 291 290 290 289 289 288 288 287 286 286 285 285 285 285 285 285 285 285 284 284 283 283 283 283 282 282 282 282 282 281 281 280 280 279 279 279 279 279 279 278 278 278 277 276 276 275 276 277 277 276 276 276 277 277 277 277 277 277 277
294 294 294 294 294 294 293 293 293 293 293 293 293 293 293 293 293 293 292 292 292 292 292 292 291 291 290 290 290 289 289 288 287 287 286 286 285 285 285 285 285 285 285 285 285 284 283 283 283 283 282 282 282 282 281 281 281 280 280 279 279 279 279 278 277 277 276 275 275 275 274 274 275 276 276 276 275 276 276 276 276 277 277 277 277
294 294 293 293 293 293 293 293 293 293 293 293 293 293 293 292 292 292 291 291 291 291 291 291 291 290 290 290 290 289 289 288 287 286 286 285 285 285 285 285 285 285 285 285 285 284 284 283 283 283 282 282 282 282 281 281 280 280 279 279 278 278 277 276 275 275 274 274 274 274 274 273 274 275 275 275 275 276 276 276 276 276 277 277 277
294 294 293 293 293 292 292 292 292 293 293 293 293 292 292 292 291 291 291 290 290 290 290 290 290 290 290 290 290 289 289 288 287 287 286 285 285 284 284 284 284 284 285 285 285 284 284 284 283 283 282 282 282 282 281 281 280 280 279 278 278 277 276 275 274 274 273 273 273 273 273 273 274 274 275 275 276 276 276 276 276 277 277 277 277
294 294 293 293 293 292 292 292 292 292 293 292 292 292 292 291 291 291 290 290 289 289 289 289 289 289 289 289 289 289 288 288 287 287 286 285 285 284 284 284 284 284 284 284 284 284 284 284 283 283 283 283 283 282 282 281 280 280 279 278 278 277 276 275 274 273 272 272 272 273 273 274 274 274 275 276 276 276 276 276 276 277 277 277 277
293 293 293 293 293 293 293 293 292 292 292 292 292 292 291 291 291 291 290 289 289 289 289 289 288 288 288 288 288 288 288 287 286 286 286 285 285 284 284 284 284 283 283 284 284 283 283 283 283 283 283 283 283 283 282 282 281 280 279 278 277 277 276 275 274 273 272 273 273 274 274 274 275 275 276 276 276 276 276 276 276 277 277 277 277
293 293 293 293 293 293 293 293 293 293 292 292 292 291 291 291 291 291 290 289 289 289 288 288 288 287 287 287 287 287 287 287 287 286 285 285 284 284 283 283 283 283 283 283 283 283 283 283 283 283 283 282 282 282 282 282 281 280 279 278 277 276 276 275 273 273 273 273 273 274 275 275 276 276 276 276 276 276 276 276 276 277 277 277 277
292 292 292 293 292 292 292 292 293 292 292 292 291 291 291 291 291 290 290 289 289 288 288 287 287 287 287 287 286 286 286 286 286 286 286 285 284 283 283 282 282 282 282 282 281 282 282 282 282 282 282 282 282 281 281 281 281 280 279 278 278 277 276 274 274 273 274 273 274 275 275 276 276 276 277 277 276 276 276 277 277 277 277 277 277
291 291 292 292 292 292 292 292 292 292 292 292 291 291 291 290 290 290 290 289 288 288 287 287 287 287 287 286 286 286 285 286 285 285 285 285 284 283 282 282 282 282 282 281 281 281 281 281 281 281 281 281 281 280 280 279 279 278 278 278 277 277 276 275 274 274 274 274 274 275 276 276 277 277 277 276 276 276 277 277 277 277 277 277 277
291 291 291 291 291 291 291 291 291 291 291 291 291 291 290 290 290 289 289 288 288 287 287 287 286 286 286 286 286 285 285 285 285 285 285 285 285 284 283 282 282 281 281 281 281 281 281 281 280 280 280 280 280 280 279 278 278 277 277 276 276 276 276 276 275 275 275 275 275 276 276 277 277 277 276 276 276 277 277 277 277 277 277 277 278
290 290 290 290 290 290 289 289 290 290 290 291 291 290 290 290 289 289 288 288 287 287 286 286 286 286 286 285 285 285 285 285 285 285 285 285 284 284 283 282 281 281 281 280 280 280 280 280 279 279 279 280 279 279 278 277 277 276 276 276 276 276 276 276 276 276 276 276 276 277 277 277 277 276 276 276 277 277 277 277 277 278 278 278 277
289 290 289 289 289 289 289 288 289 289 290 290 290 290 289 289 289 288 288 287 286 286 286 286 285 285 285 285 285 285 285 284 284 284 285 284 284 283 283 282 281 281 281 280 280 280 280 280 280 279 279 278 278 278 277 277 276 276 276 276 276 277 277 277 277 277 277 277 277 277 277 276 276 276 276 277 277 277 277 278 278 277 277 276 275
289 289 289 288 289 289 288 288 288 289 289 289 289 289 289 288 288 287 287 286 286 286 286 285 285 285 285 285 285 285 285 284 284 284 284 284 284 283 282 281 281 280 280 280 280 280 280 280 280 279 279 278 278 278 277 276 276 276 276 277 277 277 277 278 278 277 277 277 277 276 276 276 276 277 277 278 278 277 277 277 277 276 275 274 273
289 289 288 288 288 288 288 288 287 288 288 288 288 288 288 288 287 287 286 286 286 285 285 285 285 285 285 285 285 284 284 284 284 284 284 285 285 283 282 280 280 279 279 279 279 279 280 280 279 279 279 278 277 277 277 276 276 276 276 277 277 277 276 276 276 276 276 276 276 276 276 277 277 278 278 278 277 277 277 276 275 274 273 271 271
288 288 287 287 287 287 288 288 287 287 287 287 287 287 287 287 286 286 286 285 285 285 285 285 285 285 284 284 284 284 284 283 283 284 285 285 285 283 281 280 279 279 279 279 278 278 279 279 279 278 278 278 277 277 276 276 275 275 275 276 276 275 275 275 275 276 276 276 277 277 277 277 277 277 277 276 276 275 275 274 273 272 271 270 270
287 287 286 286 286 286 287 287 287 287 287 287 287 287 286 286 286 285 285 285 285 284 284 284 284 284 284 284 284 283 283 283 283 284 285 286 285 283 281 279 279 278 278 278 278 278 278 278 278 278 278 277 277 277 277 275 275 275 275 275 275 274 274 275 275 275 276 276 277 277 277 276 275 275 275 274 274 274 273 272 271 270 270 269 269
286 286 285 285 285 286 287 287 287 287 286 286 286 286 286 285 285 285 284 284 284 284 284 284 283 283 283 283 283 283 283 282 283 284 285 286 285 283 280 279 278 277 277 276 276 276 277 277 277 277 278 277 277 278 278 276 275 275 274 274 274 274 275 275 275 275 275 276 276 275 275 274 274 274 273 273 273 272 272 271 270 270 269 269 269
284 283 283 284 285 286 287 287 287 287 286 286 286 285 285 285 284 284 284 284 283 283 283 283 283 283 282 282 282 282 282 282 283 284 286 286 285 282 280 279 278 277 276 276 276 276 276 276 276 277 277 277 277 279 279 277 275 275 274 274 275 275 275 275 275 275 275 275 275 274 273 273 273 273 273 272 272 272 271 270 269 269 269 269 269
280 280 281 283 285 285 285 286 286 286 286 286 285 285 284 284 284 284 283 283 282 282 282 282 282 281 281 281 281 282 281 281 282 284 286 286 285 282 280 279 278 277 276 276 276 276 276 276 277 276 277 277 278 279 279 278 277 275 275 276 275 275 276 275 275 275 275 274 274 273 273 273 272 272 272 272 271 271 270 269 269 269 269 269 269
277 278 280 283 284 284 284 284 285 285 285 285 284 284 284 283 283 283 282 282 281 281 281 281 280 280 280 280 280 281 281 281 282 284 286 286 285 282 281 280 278 278 277 276 276 276 276 276 277 277 277 278 278 279 279 279 278 277 276 277 276 276 276 276 275 275 274 274 273 272 272 272 271 272 272 271 271 271 269 268 268 268 268 268 268
275 276 279 282 282 281 282 282 283 284 284 284 283 283 283 282 282 282 281 281 280 280 280 280 279 279 278 279 279 279 279 280 281 283 285 286 284 282 282 281 279 278 277 277 276 276 276 276 277 277 278 278 278 279 279 279 279 278 277 277 277 277 276 276 275 274 273 273 272 271 271 271 271 271 271 271 271 270 269 268 268 268 268 268 268
274 275 278 279 278 278 279 280 281 282 283 283 283 282 282 281 281 281 280 280 279 279 278 278 278 277 277 277 277 278 278 279 280 281 284 286 285 282 282 282 279 278 278 277 277 277 276 276 276 277 279 279 278 279 279 279 279 279 278 278 277 277 276 275 274 274 273 272 271 271 271 271 270 271 270 270 270 269 269 268 268 268 268 268 268
273 275 276 276 276 276 276 277 279 281 281 282 282 281 281 281 280 279 279 279 278 278 277 277 277 276 276 276 276 276 277 278 279 280 283 285 285 283 282 281 280 278 277 277 277 276 276 276 276 278 279 279 279 279 279 279 279 278 278 278 277 276 275 274 273 273 272 271 271 270 271 271 270 270 269 269 269 269 268 268 268 268 267 267 267
272 273 273 273 273 273 274 275 277 279 280 281 281 281 281 280 279 279 278 278 278 278 277 277 276 276 276 276 276 276 276 276 277 279 281 284 285 284 282 281 280 279 278 277 277 277 276 276 277 278 279 279 280 279 279 279 278 278 277 277 276 275 274 273 272 272 271 271 270 270 271 270 270 270 269 268 268 268 268 267 267 267 267 267 267
271 271 270 270 271 271 272 274 276 278 279 280 280 280 280 279 279 278 278 278 278 278 277 277 277 276 276 276 276 275 275 275 276 277 279 282 284 284 282 281 281 279 277 277 277 277 277 277 277 278 279 279 279 278 277 277 277 276 276 275 275 274 273 272 272 271 271 270 270 270 270 270 269 269 268 267 268 268 267 267 266 266 267 267 267
269 268 268 268 269 270 271 273 274 276 278 279 279 279 279 279 278 278 278 278 278 278 278 277 277 277 277 277 276 274 274 275 275 276 278 281 283 284 283 281 281 279 278 277 277 277 277 277 277 278 278 277 276 276 276 275 275 274 274 274 273 273 272 271 270 270 270 270 270 270 270 269 268 268 267 267 267 267 267 266 266 266 266 266 267
267 267 267 267 268 269 271 272 274 276 278 279 279 279 279 279 279 279 279 279 279 279 279 278 278 278 277 277 276 275 274 275 275 276 278 280 282 284 283 281 281 279 278 277 277 277 277 277 277 276 275 275 274 274 274 273 273 273 273 272 271 271 270 269 270 270 270 270 269 269 269 268 268 267 267 266 267 267 266 266 266 266 266 266 266
265 265 266 267 268 269 271 273 274 276 277 278 278 278 279 279 279 279 279 279 279 280 280 279 279 279 278 278 277 276 276 276 276 276 277 279 282 283 283 282 280 279 277 277 277 276 276 275 275 274 273 273 272 271 271 272 271 271 271 270 270 269 269 269 270 269 269 269 269 269 268 267 267 267 266 266 266 266 266 266 266 266 266 266 266
265 265 265 266 267 269 271 272 273 275 276 277 277 278 278 278 278 279 279 279 279 279 279 280 280 279 278 278 278 277 277 277 276 276 277 279 281 283 283 282 280 278 278 277 276 275 275 274 273 272 272 271 271 270 270 270 270 269 269 268 268 268 269 269 269 269 269 269 268 268 267 267 266 266 266 266 265 265 265 265 266 266 266 266 266
264 264 265 265 266 267 269 270 272 273 275 276 277 277 278 278 278 278 279 279 279 279 279 280 280 280 279 278 277 277 277 277 276 277 278 279 281 282 283 282 280 279 278 277 275 274 274 273 272 271 271 271 270 270 270 269 269 268 268 267 268 268 269 269 269 269 269 268 268 267 267 267 266 266 266 265 265 265 265 265 265 266 266 266 266
263 263 264 264 265 266 267 269 270 273 275 276 277 277 277 277 278 278 278 279 279 280 280 280 280 280 280 279 278 277 277 277 277 277 278 279 281 282 283 282 280 279 278 276 274 273 272 272 271 271 270 270 270 269 269 269 268 268 268 268 269 269 269 269 269 268 268 268 267 267 267 266 266 265 265 265 265 265 265 265 265 265 266 266 267
263 263 263 264 265 266 267 269 270 272 274 276 277 277 277 277 277 277 277 278 278 279 280 280 280 280 280 280 280 279 278 278 278 278 279 279 280 282 282 282 281 280 278 275 273 272 272 271 271 270 270 270 269 269 268 268 268 268 269 269 270 270 269 268 268 268 268 267 267 267 266 266 266 265 265 265 264 264 264 265 265 265 266 266 267
263 263 264 265 266 267 268 268 269 269 271 273 275 277 277 277 277 277 277 277 277 278 278 279 279 280 280 280 280 280 279 278 278 279 279 279 280 281 282 281 281 280 277 275 273 272 272 271 270 270 269 269 269 268 268 268 268 269 269 269 269 269 268 268 268 268 268 267 267 266 266 266 265 265 264 264 264 264 264 264 265 265 266 266 267
263 264 264 265 266 266 266 266 266 267 268 270 272 275 277 277 277 277 277 277 277 277 278 278 278 279 280 280 280 280 280 279 279 279 280 280 281 282 282 281 280 279 276 273 273 272 272 271 270 269 269 268 268 268 268 268 268 269 270 270 269 269 268 268 268 268 267 267 266 266 266 265 265 265 264 264 264 264 264 264 265 265 266 266 267
263 264 264 264 265 265 266 266 267 268 270 271 273 275 277 277 277 277 276 276 277 277 277 277 277 278 279 280 280 280 280 279 279 279 280 280 281 282 281 280 279 277 274 273 272 272 270 270 269 268 268 268 268 268 268 269 269 270 270 269 269 269 268 268 267 267 267 266 266 266 265 265 265 265 264 263 263 263 264 264 265 265 266 267 267
263 263 264 264 265 266 266 267 267 268 270 271 273 275 277 277 276 276 276 276 276 276 276 277 277 277 278 279 280 280 280 280 279 280 280 280 281 281 281 280 278 276 273 272 272 271 270 269 269 268 268 268 268 268 268 269 269 269 269 269 268 268 268 267 267 267 267 266 266 266 265 265 266 265 265 263 263 263 264 264 265 266 267 267 267
264 264 264 265 265 265 266 266 267 268 269 270 271 274 276 276 276 276 276 275 276 276 276 276 277 277 277 278 279 280 280 279 279 280 280 280 281 281 280 279 277 274 272 271 270 270 269 269 268 268 268 268 268 268 269 269 269 269 268 268 268 268 267 267 267 266 266 266 266 266 266 266 266 265 265 263 263 263 264 265 266 266 267 267 267
264 264 264 264 264 265 265 266 267 268 270 271 271 273 275 276 275 275 275 275 275 276 276 276 276 277 277 278 279 279 279 279 279 279 279 280 280 280 279 278 275 272 271 270 270 270 269 268 267 268 268 268 269 269 269 269 269 268 268 268 268 267 267 267 266 266 266 266 266 266 266 265 265 265 264 264 263 264 265 265 266 267 267 267 267
262 263 263 263 264 264 265 266 267 268 270 272 273 274 275 275 275 275 275 275 275 275 275 276 276 276 277 278 278 279 279 278 279 279 279 279 279 278 277 275 272 271 270 270 270 269 268 268 267 268 268 269 269 269 269 269 268 268 268 267 267 267 267 266 266 266 266 266 266 265 265 265 265 264 264 264 264 264 265 266 266 267 267 267 267
262 262 262 263 263 264 265 266 267 268 269 271 273 274 274 274 274 274 274 274 275 275 275 276 276 276 277 278 279 279 279 278 278 278 278 277 276 275 273 272 272 272 272 271 270 268 268 268 268 269 269 269 269 269 269 268 268 268 267 267 267 267 266 266 266 266 265 265 265 265 265 265 265 264 263 264 264 264 265 266 266 267 267 267 266
262 262 263 263 264 264 265 266 267 269 270 271 272 273 274 274 274 274 274 274 274 275 275 275 276 276 277 278 279 279 278 277 276 276 275 274 273 272 271 271 271 272 271 270 269 268 269 269 269 269 269 269 269 269 268 268 268 268 267 267 267 266 266 266 265 265 265 265 265 265 265 265 265 264 264 264 264 264 265 266 266 267 267 266 266
263 263 263 264 264 265 266 267 268 270 270 271 272 273 273 273 273 273 274 274 274 275 275 275 276 276 277 278 278 277 275 274 274 273 272 271 270 270 270 270 270 270 269 268 269 269 270 270 269 269 269 269 268 268 268 268 268 268 267 267 266 266 266 266 265 265 265 264 264 265 265 265 265 264 264 264 264 265 265 266 266 267 266 266 266
263 263 264 264 265 266 267 268 269 270 271 271 272 272 272 273 273 273 273 274 274 274 274 275 275 275 275 276 275 273 272 271 271 270 269 269 268 268 268 269 269 269 269 269 270 270 270 270 269 269 268 268 268 267 267 267 267 267 266 266 266 266 266 265 265 264 264 264 264 264 264 265 265 264 264 264 264 265 265 266 267 266 266 266 266
263 264 265 265 266 267 268 268 269 270 271 271 272 272 272 272 272 273 273 273 273 273 273 272 272 272 272 271 270 269 269 269 268 267 267 267 267 267 268 269 270 270 270 270 270 270 270 269 269 268 268 268 267 267 267 267 266 266 266 266 265 265 265 265 264 264 264 264 264 264 264 264 264 264 264 265 265 265 266 266 266 266 266 266 266
263 264 265 266 267 267 268 268 269 270 270 271 271 271 271 271 272 272 272 272 271 271 270 269 269 268 268 267 267 267 266 266 266 266 265 266 267 268 269 269 270 270 270 270 270 269 269 268 268 268 268 267 267 267 266 266 266 265 265 265 265 265 264 264 264 264 264 264 264 264 264 264 264 265 265 265 265 266 266 266 266 266 266 266 266
263 263 264 265 266 266 267 268 268 269 269 269 269 269 269 270 270 269 269 269 268 268 267 266 266 265 265 265 265 265 265 265 265 264 265 266 267 269 270 270 270 270 269 269 268 268 268 267 267 267 267 267 266 266 266 265 265 265 265 265 265 264 264 264 264 264 264 264 264 264 264 264 264 265 265 265 266 266 266 266 265 266 266 266 266
262 263 263 264 264 265 265 266 266 267 267 267 267 267 267 267 267 267 266 266 266 265 265 264 264 264 264 264 264 264 264 264 264 264 265 266 267 269 269 269 269 269 268 268 267 267 267 267 267 267 266 266 265 265 265 265 265 265 264 264 264 264 264 264 264 264 264 264 264 264 264 264 265 265 266 266 267 267 266 266 265 266 266 266 266
262 262 262 263 263 264 264 265 265 265 265 265 265 265 265 265 265 265 265 265 264 264 264 263 263 263 263 263 263 263 264 264 264 264 265 266 267 268 268 268 268 267 267 267 266 266 266 266 266 266 265 265 265 265 265 264 264 264 264 264 264 264 264 264 264 264 264 263 263 264 264 265 265 266 266 267 267 266 266 265 265 266 266 266 265
261 262 262 262 262 263 263 264 264 264 264 264 264 264 264 264 264 264 264 263 263 263 263 263 262 262 262 262 263 263 264 264 265 265 265 266 267 267 267 267 267 266 266 266 266 266 266 265 265 265 264 264 264 264 264 264 264 264 264 264 264 264 264 264 264 264 263 263 264 264 265 265 266 266 267 267 267 266 265 265 266 266 266 265 265
Wind_Speed
24 26 29 30 33 36 38 39 39 40 40 40 41 42 41 41 41 41 40 40 41 41 41 42 43 44 45 45 45 45 46 46 45 45 44 43 42 41 40 39 38 37 35 33 31 30 29 29 28 27 26 25 24 24 23 22 20 19 19 19 19 19 19 17 10 9 14 13 11 13 16 18 18 19 21 23 23 21 22 23 24 25 25 26 26
24 25 27 28 32 35 35 35 37 38 39 40 42 43 43 43 43 42 42 42 41 42 42 42 43 44 44 45 46 46 47 47 47 47 46 45 44 43 42 41 40 38 37 36 34 32 31 31 30 29 28 27 27 26 25 24 23 22 21 21 21 21 21 21 15 10 15 17 14 13 14 15 17 18 20 22 22 22 23 25 24 24 24 24 25
26 27 28 30 33 33 33 33 33 34 37 40 43 44 44 44 44 44 44 44 43 43 43 43 43 44 45 45 46 46 47 48 48 49 48 48 47 46 45 44 43 42 41 39 37 36 34 34 33 32 31 30 29 28 26 25 23 23 22 22 22 21 22 22 19 15 16 17 14 11 10 12 16 18 17 18 19 20 23 24 22 22 22 22 23
29 29 30 33 34 33 35 34 33 34 37 40 43 44 44 43 43 44 44 44 44 44 44 44 44 45 46 46 47 47 48 48 48 49 49 49 49 48 47 46 45 45 44 42 40 39 38 37 36 34 33 32 31 29 27 26 25 24 23 22 22 21 21 22 22 19 16 14 13 11 10 12 15 15 15 16 18 19 21 21 19 20 20 20 21
30 30 31 33 34 34 36 36 36 38 40 42 44 44 42 42 43 43 44 44 44 45 45 46 47 47 48 48 49 49 48 48 48 49 49 49 49 48 48 47 47 46 45 44 43 42 41 40 39 37 36 35 33 32 30 28 27 25 24 23 22 21 20 20 20 19 17 16 15 13 12 12 13 12 12 14 18 20 20 19 18 19 20 21 22
32 31 30 32 33 35 35 35 37 41 42 45 45 43 40 39 39 40 42 43 43 44 45 47 48 49 50 50 50 49 49 49 49 50 50 49 49 48 48 48 47 47 46 45 45 44 43 41 40 39 39 38 36 34 32 30 28 27 25 24 21 19 18 17 16 16 16 15 14 12 11 11 11 11 11 13 16 18 19 20 20 20 22 24 25
33 32 31 31 32 33 34 35 38 41 43 44 44 41 39 39 39 40 40 41 42 43 44 45 47 48 49 50 50 50 49 49 49 50 50 50 50 49 49 49 48 48 47 46 46 45 44 42 41 40 40 39 37 35 33 32 30 28 26 23 20 18 17 16 15 14 13 11 10 10 10 10 10 11 11 12 14 15 18 22 22 23 24 25 27
34 33 32 30 31 33 34 35 38 40 42 42 41 40 39 39 41 42 41 42 43 44 44 45 45 44 45 46 48 48 48 49 49 49 50 51 51 51 51 51 49 48 47 46 46 45 44 42 41 40 39 38 36 35 33 32 30 28 25 22 20 19 17 16 14 12 10 9 9 9 9 9 8 9 11 13 14 15 19 22 24 25 27 26 26
35 35 33 32 32 33 34 35 37 39 40 40 40 39 39 39 40 40 41 43 44 43 43 42 42 42 42 43 44 45 47 49 51 52 51 51 51 51 50 50 49 48 47 46 45 44 44 43 41 39 38 36 35 33 31 30 28 26 25 22 21 19 17 16 14 11 9 9 9 8 7 7 7 9 10 12 15 18 21 23 22 25 29 29 25
33 34 33 34 34 33 32 33 35 37 38 39 39 39 39 39 38 40 41 43 42 41 40 40 41 42 42 42 43 44 47 49 52 53 54 53 51 49 47 47 47 47 46 45 43 43 43 42 41 39 37 36 34 31 29 27 24 23 21 21 21 20 19 16 13 11 10 10 9 6 5 6 7 8 9 12 16 19 20 21 21 24 28 27 23
33 33 33 36 37 36 34 32 33 35 36 37 38 38 38 37 38 39 41 41 40 39 39 40 42 42 41 42 43 45 46 47 48 51 53 52 50 48 47 46 45 45 44 44 44 44 43 42 41 39 37 35 33 30 28 25 24 22 20 19 19 20 19 16 14 13 12 10 8 6 5 6 7 7 9 14 17 17 18 19 21 23 23 21 21
35 34 34 37 38 37 35 33 31 32 34 35 36 37 36 36 37 38 39 39 39 38 39 41 41 40 40 41 42 43 44 45 46 49 50 51 50 49 47 45 44 44 44 44 44 44 44 43 40 38 36 35 33 30 26 24 22 22 20 19 19 18 16 14 13 12 10 9 8 7 5 5 6 7 11 15 16 17 17 18 19 21 21 20 21
34 33 34 36 37 37 36 34 31 31 31 32 33 33 33 34 36 36 37 37 37 38 39 39 38 38 38 39 40 40 40 42 45 48 50 51 51 49 46 45 45 44 44 44 44 45 45 42 39 37 35 34 33 30 27 24 21 19 19 19 19 19 17 16 14 11 8 7 7 6 6 6 7 9 13 15 16 16 17 17 17 19 20 18 20
32 32 34 36 37 38 38 35 33 31 30 29 28 28 30 32 33 34 34 34 35 36 37 37 38 38 38 38 37 37 38 40 43 46 48 49 51 49 45 43 43 43 44 46 45 45 45 43 42 40 37 34 33 31 29 26 24 22 21 20 20 20 19 18 17 14 11 9 8 8 8 8 10 13 15 14 15 16 16 16 17 19 21 22 28
30 30 32 35 37 38 38 37 35 33 30 26 25 25 27 29 30 31 31 32 34 36 36 37 38 38 39 38 37 38 40 41 41 44 47 47 48 47 43 40 39 39 41 44 44 44 44 44 42 41 38 35 34 33 31 29 27 25 24 24 22 22 21 19 18 16 14 13 11 10 10 10 12 13 14 13 14 15 16 17 20 23 26 30 33
29 29 32 34 36 38 38 37 36 34 30 26 23 23 24 26 27 28 29 30 32 32 34 35 37 38 38 39 39 39 39 40 40 43 45 43 41 42 40 38 36 36 37 40 42 42 42 42 40 39 38 36 34 32 31 30 29 28 28 27 25 23 22 19 16 14 13 12 11 10 10 11 12 12 13 13 13 14 17 20 23 24 25 26 28
28 29 32 34 36 38 37 36 35 34 31 27 24 24 23 24 24 25 26 27 28 30 32 33 34 36 38 39 40 38 36 38 40 41 41 38 37 38 39 37 35 35 37 40 42 41 40 40 39 36 36 35 32 29 29 30 31 30 30 28 25 22 19 15 13 12 12 11 10 10 11 12 12 12 12 10 10 12 16 21 23 22 20 17 19
28 29 33 36 37 38 37 35 33 31 29 27 26 25 23 23 23 23 25 26 27 29 30 30 31 34 36 38 38 36 35 37 40 40 39 38 39 39 39 36 34 34 36 38 39 40 38 37 37 35 35 34 31 27 27 29 31 31 30 27 24 21 19 16 14 12 11 11 11 11 12 12 11 11 11 10 11 13 16 21 22 20 18 14 14
29 31 34 36 37 38 37 36 34 31 28 27 26 25 23 22 22 23 24 26 26 27 27 28 29 31 33 35 35 35 34 35 39 40 38 39 40 40 39 37 34 32 33 34 35 35 35 34 34 34 34 33 31 28 27 28 30 31 29 26 23 21 20 18 15 13 12 13 13 13 14 14 13 13 14 14 16 17 19 20 19 17 17 16 16
31 33 36 36 36 36 36 36 35 32 29 27 26 24 22 21 21 22 23 25 24 24 25 26 27 28 29 31 32 34 34 34 37 38 37 39 41 41 40 39 36 33 33 33 33 34 33 32 31 32 33 33 32 30 29 29 29 28 26 25 24 22 20 18 15 14 13 13 13 13 14 15 16 16 17 17 17 18 17 15 14 14 16 18 18
33 35 36 35 34 35 35 35 34 33 30 28 25 23 21 20 21 22 23 23 22 23 24 24 25 25 26 28 30 32 33 34 36 37 37 39 40 41 41 39 37 36 34 34 36 38 35 33 32 32 33 33 31 30 30 29 28 26 25 24 22 19 17 16 15 14 12 12 12 13 15 17 18 17 16 16 16 16 15 13 13 15 16 18 20
35 37 35 33 32 34 35 35 34 33 31 27 25 24 21 19 20 21 21 22 21 21 22 22 22 22 23 25 28 30 31 33 36 37 37 38 39 40 42 40 38 38 37 34 36 38 37 37 36 34 33 31 29 28 28 28 27 25 24 22 18 16 17 17 16 14 13 13 14 16 18 18 17 15 14 15 15 15 15 15 15 16 17 19 21
37 37 34 32 32 34 34 35 34 32 30 28 25 24 22 20 20 20 21 21 20 19 20 20 19 19 20 22 26 28 29 31 35 36 36 38 37 37 41 41 39 39 39 36 36 38 39 38 37 34 31 30 28 27 27 27 27 25 23 20 18 18 19 18 16 15 14 15 15 17 18 15 13 13 13 14 14 15 16 17 18 19 20 22 23
38 37 34 33 34 34 34 35 34 32 30 28 26 25 23 21 19 20 20 20 19 18 18 19 18 18 19 20 23 26 28 30 34 36 36 37 36 34 38 41 39 38 38 35 34 38 39 38 36 34 31 30 29 28 27 26 26 24 22 21 20 21 20 19 17 16 16 16 17 17 15 12 10 11 12 13 15 16 18 19 20 21 22 24 25
36 35 35 36 36 35 35 36 35 33 31 27 26 26 25 22 20 20 20 20 19 18 17 18 19 18 18 19 21 25 27 28 32 36 36 38 36 32 35 39 38 36 35 32 31 33 35 34 33 31 30 29 29 27 26 26 24 22 22 23 24 23 21 20 18 18 17 17 16 15 11 9 9 9 11 13 15 17 19 21 22 23 24 26 27
33 33 35 38 38 37 36 35 34 32 30 28 28 28 27 25 22 21 20 20 20 18 17 18 18 17 18 19 20 23 26 27 30 34 36 37 37 33 34 37 37 35 34 32 30 30 30 29 30 29 28 29 29 29 28 26 24 23 24 25 25 24 22 21 20 19 18 16 14 11 9 7 8 9 11 13 15 17 20 21 23 25 25 26 28
33 33 35 37 37 37 35 33 32 31 30 28 28 29 29 27 24 22 21 21 20 19 19 19 18 18 19 19 19 23 26 27 28 31 33 33 33 33 35 37 36 34 33 31 28 27 26 26 28 28 27 27 27 28 28 26 25 26 26 26 25 23 22 21 19 17 16 14 11 9 7 7 8 10 11 13 16 18 19 21 23 25 25 26 27
34 36 38 36 35 35 33 32 32 31 29 28 27 28 28 28 27 26 27 26 24 22 22 21 22 23 21 19 20 22 24 26 29 32 34 34 33 32 34 36 36 35 35 34 31 29 28 27 27 28 27 26 27 27 28 27 27 27 26 24 23 22 21 19 17 16 14 11 9 7 6 7 9 10 12 14 16 19 19 20 22 25 25 24 24
36 38 39 35 33 31 30 30 30 29 28 28 28 29 30 31 31 31 32 32 31 28 26 26 28 29 26 24 24 23 23 28 33 36 37 37 37 35 35 36 36 36 36 36 35 33 31 29 29 29 28 28 28 28 28 27 26 24 24 23 22 22 21 20 18 15 13 10 8 7 6 7 9 11 13 15 18 19 19 20 21 24 24 23 22
35 36 35 32 30 28 26 26 27 26 26 26 27 29 31 32 33 33 32 32 33 33 31 30 31 31 30 30 30 30 30 31 31 32 34 36 36 35 33 34 35 34 34 36 36 34 32 30 29 30 30 29 29 28 28 28 26 25 24 24 24 23 22 20 17 14 12 10 8 7 6 7 9 11 13 16 19 20 20 20 21 22 23 22 23
32 32 30 28 28 27 25 25 26 25 25 26 25 26 26 28 30 33 32 30 29 29 31 32 31 30 30 31 31 31 31 29 26 29 32 34 35 35 31 30 33 35 37 38 36 33 32 30 29 29 30 29 28 28 28 28 27 26 26 25 24 24 22 19 16 14 12 10 8 6 6 7 9 12 14 16 19 20 20 20 21 21 22 22 22
30 32 32 30 30 29 27 26 26 24 23 24 24 24 22 21 22 25 28 28 26 25 27 29 29 27 28 29 28 29 29 26 25 29 33 35 36 36 32 31 34 36 39 40 35 30 29 29 26 27 28 27 27 28 29 28 28 27 27 27 26 25 22 18 16 14 11 9 7 5 5 7 9 12 14 16 18 20 20 20 20 20 21 22 23
33 35 34 31 30 29 28 27 26 24 22 21 22 22 21 17 15 16 19 23 25 26 27 28 29 29 27 27 27 28 28 26 25 28 33 36 38 37 34 33 36 38 39 38 32 28 27 27 26 27 29 28 28 29 29 29 29 29 29 29 28 25 21 17 14 13 11 8 6 5 5 7 10 12 15 17 18 20 20 19 19 20 21 22 23
35 36 35 33 32 30 28 26 24 23 23 22 22 22 22 20 18 16 13 13 16 21 25 28 30 31 30 28 27 27 27 27 27 29 33 36 38 39 36 34 37 40 40 37 31 28 28 27 27 29 30 28 28 29 29 29 30 30 30 29 26 23 19 17 14 12 10 8 6 6 7 8 10 12 15 18 19 20 20 19 19 20 20 21 23
35 36 36 35 32 28 25 25 25 26 26 26 25 24 23 22 21 19 16 12 10 13 19 24 28 30 31 30 29 28 28 28 28 30 33 35 38 39 37 33 34 36 36 34 32 31 31 31 30 31 31 30 30 31 31 30 31 31 30 28 24 22 19 17 14 12 9 8 7 8 8 9 10 13 16 18 19 20 20 20 20 20 21 22 24
33 33 33 33 31 31 33 34 32 31 29 29 29 28 24 23 21 20 19 17 15 15 16 20 24 27 30 31 30 29 29 29 29 31 34 35 38 40 37 32 30 30 29 30 32 32 32 32 31 31 31 31 30 31 31 31 32 32 30 27 24 22 19 16 13 11 9 8 8 8 8 10 13 15 16 18 19 20 21 22 22 21 22 23 23
33 32 33 33 33 34 35 33 31 30 29 29 29 27 24 22 21 20 18 18 17 17 16 17 18 20 24 29 29 28 29 29 29 31 34 36 39 41 36 30 28 26 26 28 31 31 29 29 29 30 31 31 31 31 32 32 33 32 29 25 23 20 17 14 11 9 8 8 8 8 10 11 14 15 16 18 20 20 21 22 23 23 22 22 23
37 35 34 33 32 31 29 28 28 30 30 29 28 25 23 21 20 19 18 17 17 16 16 16 17 17 19 24 27 27 28 28 29 30 32 35 38 38 34 30 28 27 27 29 31 30 29 29 30 31 32 32 32 33 32 32 32 30 27 24 20 17 14 12 10 8 7 7 7 9 10 12 13 15 17 19 20 21 22 23 23 23 23 22 21
32 31 32 32 32 31 30 29 29 28 27 28 28 25 21 19 17 17 17 16 16 16 16 16 17 18 20 22 24 25 25 25 25 26 28 31 35 35 32 29 28 28 29 30 30 31 31 30 31 32 32 32 33 33 33 32 31 28 25 22 19 16 13 11 9 8 6 7 8 9 10 11 13 15 18 20 21 22 23 23 23 23 23 23 23
27 27 29 30 30 29 29 28 27 25 23 24 25 24 20 17 16 16 16 15 15 16 16 16 18 19 21 23 25 26 24 23 24 25 26 28 30 30 29 29 28 28 30 31 31 31 31 31 32 32 33 33 33 33 33 32 29 25 22 19 17 15 13 11 9 7 6 6 8 9 10 11 13 16 19 21 21 22 23 23 23 24 24 24 26
27 27 28 28 28 27 27 27 27 26 24 22 22 21 20 18 17 17 17 16 16 16 16 17 18 20 23 25 28 29 27 25 25 26 26 27 27 27 28 29 29 31 33 33 33 32 32 32 33 34 34 33 33 33 32 29 26 23 21 18 16 14 12 10 8 6 5 6 7 8 10 12 14 17 19 20 21 22 23 24 25 25 24 23 26
27 26 26 26 25 25 25 25 25 24 23 23 21 19 19 19 18 18 17 16 16 15 16 16 18 20 22 25 29 30 28 25 24 24 24 25 25 26 27 29 32 34 36 36 35 34 34 34 35 35 35 35 35 33 30 27 24 22 19 17 15 13 11 9 7 5 5 6 7 8 10 12 15 17 18 20 22 23 24 25 25 24 23 25 27
27 25 25 25 24 23 23 24 22 20 19 19 19 18 18 18 18 18 16 16 16 15 14 14 15 17 20 24 30 30 26 22 22 22 23 24 26 27 29 31 33 34 34 34 33 34 35 35 35 35 35 35 33 30 28 25 22 20 17 15 13 11 9 8 7 6 5 6 7 9 11 14 16 18 20 21 23 24 24 25 25 23 23 27 29
25 24 24 23 23 22 23 22 21 20 20 20 21 20 19 17 16 16 15 14 15 14 14 13 15 16 18 21 25 24 21 20 22 23 24 25 27 29 30 32 33 33 32 32 32 33 34 34 34 34 33 31 29 26 23 20 18 16 15 13 12 10 9 7 6 5 5 7 8 10 13 15 16 19 21 22 23 24 24 24 23 24 26 28 28
24 24 23 22 21 21 21 20 19 20 21 20 18 17 16 16 15 14 13 13 12 12 12 13 14 16 16 17 18 20 22 23 24 24 25 28 29 30 31 33 33 33 33 33 33 33 33 34 34 32 31 29 26 23 20 17 15 14 12 11 10 8 7 6 5 5 6 8 9 11 14 16 17 20 21 22 24 25 25 23 23 25 27 28 27
23 22 21 19 18 18 18 18 18 18 17 15 13 12 12 12 12 11 11 11 11 11 12 12 14 16 18 19 20 22 24 25 25 25 26 28 30 31 32 33 33 33 34 34 33 32 31 31 31 30 29 26 23 20 18 16 14 12 11 9 8 7 5 6 6 7 7 8 10 12 14 16 18 20 22 25 27 27 24 22 24 26 27 27 27
21 19 17 15 14 13 13 12 11 9 8 7 7 6 7 7 8 8 9 10 11 13 14 15 17 18 19 20 22 23 24 26 27 27 27 29 32 33 33 33 33 33 33 32 31 29 29 28 28 27 25 22 20 18 16 14 12 11 9 8 7 6 6 6 7 8 9 9 11 13 14 15 18 21 24 28 29 25 22 23 26 27 27 27 27
20 18 16 14 12 9 8 6 3 2 3 4 6 6 7 8 9 10 11 13 14 16 18 18 18 19 20 21 22 24 25 26 27 28 30 32 34 35 35 34 34 33 32 30 29 28 27 26 25 22 20 19 17 16 14 12 11 9 8 7 6 6 7 8 8 9 9 10 12 13 13 15 19 23 26 28 26 22 22 26 27 26 27 27 26
19 18 16 14 13 11 10 9 8 8 8 9 10 10 11 12 13 14 15 17 17 17 19 19 20 21 22 22 23 25 27 29 30 31 33 34 34 34 33 33 32 31 31 30 28 27 25 23 21 19 18 16 15 13 12 10 9 7 7 6 7 7 8 9 9 9 10 11 11 11 13 16 21 24 26 26 23 21 25 28 27 26 27 26 25
19 19 17 16 15 14 12 12 12 12 11 12 12 12 13 14 14 14 16 18 18 18 19 20 20 21 22 24 25 27 28 31 33 34 35 34 33 33 32 32 31 31 30 28 27 25 23 21 19 17 16 14 13 11 10 8 7 7 7 7 7 7 8 8 8 9 9 10 10 12 15 19 22 25 25 23 21 23 26 27 26 26 26 25 25
20 20 19 18 17 16 15 14 14 13 13 13 13 13 14 14 14 15 16 17 18 19 19 20 20 21 22 24 26 28 30 32 34 35 35 34 33 32 32 31 30 29 28 26 24 23 21 19 17 15 14 12 11 9 8 7 7 7 7 7 7 7 7 7 8 8 9 9 12 15 18 20 23 25 24 21 21 24 27 27 26 26 26 25 25
Wind_Direction
250 247 244 240 236 233 231 229 228 227 226 224 224 225 225 225 224 222 221 219 217 215 213 212 211 210 209 209 209 209 209 209 209 209 209 210 210 210 211 210 210 210 209 208 208 208 208 207 207 205 204 203 204 205 206 208 208 207 207 205 203 202 200 195 202 255 270 274 274 269 273 282 290 301 310 315 323 331 334 334 335 336 338 339 340
264 259 257 254 250 246 242 238 234 231 228 227 226 225 225 225 225 223 221 221 219 216 214 213 212 210 209 209 209 209 209 209 208 208 208 208 208 209 210 209 208 208 208 207 207 207 208 208 207 206 205 206 206 207 209 208 207 207 205 204 204 202 202 203 203 226 262 273 275 269 268 273 287 305 315 317 324 332 332 333 335 335 336 337 338
282 271 264 260 257 256 255 251 246 240 235 231 229 227 226 225 224 222 221 220 218 217 216 214 212 210 209 209 209 209 209 209 208 208 207 206 206 207 208 209 208 207 207 207 207 206 206 208 208 206 205 205 207 208 209 210 208 208 207 206 207 206 206 210 212 217 242 263 270 263 254 263 284 304 315 317 322 326 324 326 331 332 332 333 334
302 286 275 267 261 256 254 253 251 248 244 239 235 232 228 226 224 223 221 219 216 215 215 214 212 210 208 208 208 209 209 208 207 207 207 207 206 206 207 208 208 208 208 207 207 206 206 207 207 207 205 205 206 207 208 209 210 210 209 210 211 211 211 213 218 221 229 246 258 254 249 264 283 301 314 317 319 319 317 318 322 326 329 329 330
322 304 288 276 267 259 254 250 246 245 245 243 242 239 234 229 227 224 221 218 216 214 213 212 210 208 208 208 208 208 208 207 206 206 207 207 207 207 207 207 208 208 209 209 208 208 208 208 208 207 205 205 206 207 207 208 209 210 211 212 212 213 215 215 218 222 224 233 248 259 266 274 286 302 313 313 313 315 318 323 326 328 329 329 330
336 322 305 288 274 266 259 252 248 245 244 243 243 241 238 234 231 227 223 220 217 214 212 210 209 208 208 208 208 208 208 208 207 207 207 206 206 207 207 207 208 208 209 209 210 210 209 210 210 208 207 208 208 208 208 208 209 210 210 212 213 213 214 214 214 216 220 230 247 264 275 282 288 296 306 312 314 318 324 329 331 332 331 331 330
342 334 321 304 288 277 268 259 254 250 247 245 243 240 238 235 233 231 227 223 220 216 213 212 210 210 209 207 207 207 207 207 208 207 206 206 205 205 206 206 207 207 208 209 210 211 211 211 211 211 210 211 211 210 209 207 208 210 211 212 213 213 212 212 212 213 219 231 247 260 274 286 288 295 313 328 330 331 333 332 331 332 333 330 328
344 341 334 320 305 293 282 271 263 258 254 250 246 241 238 235 232 230 227 225 223 220 217 214 212 211 210 208 207 206 205 206 207 206 206 205 205 205 205 205 204 204 206 207 209 210 211 211 213 214 214 214 215 214 212 209 207 207 210 211 212 213 213 211 210 213 221 233 248 260 274 287 297 314 333 344 345 343 340 333 327 327 329 327 325
344 343 341 334 323 310 296 282 272 265 259 254 249 244 239 236 232 229 227 225 224 222 219 217 213 211 210 209 208 206 205 206 207 207 206 204 204 204 204 204 203 202 202 204 206 208 209 211 213 215 216 216 217 217 216 214 212 209 209 209 209 212 212 209 209 215 223 235 250 264 279 296 320 336 344 350 346 338 336 333 326 325 326 323 323
342 342 342 340 336 327 312 296 282 272 264 257 252 246 241 237 232 229 227 226 224 221 219 217 215 213 211 208 207 207 207 208 208 208 207 205 203 203 203 203 202 201 200 200 202 204 207 209 211 214 215 214 214 215 215 215 216 216 215 215 214 212 207 204 208 216 222 232 247 266 290 311 331 342 341 341 338 333 334 335 329 327 328 325 324
341 341 342 342 343 340 330 314 296 282 270 261 255 249 243 237 232 229 226 224 222 219 217 216 215 214 212 209 208 208 209 209 209 208 208 207 204 202 202 202 202 201 200 199 199 200 203 206 209 210 210 210 210 211 212 212 213 213 214 217 218 215 208 205 208 213 221 231 249 269 282 302 328 342 336 333 333 333 333 333 329 327 329 326 322
340 341 342 343 343 343 339 328 313 296 281 268 259 252 245 238 232 228 224 221 219 217 216 216 215 213 212 211 211 210 211 211 210 209 209 208 207 204 202 201 201 200 200 200 199 199 200 202 204 204 205 206 206 205 204 205 207 209 210 208 209 211 213 214 210 211 219 229 244 260 272 297 318 326 327 327 328 327 328 328 327 323 319 316 315
338 339 341 343 342 341 339 335 325 311 296 280 267 255 246 238 232 227 223 220 217 215 215 214 213 212 212 212 212 213 212 212 211 211 210 210 209 206 203 202 201 200 201 201 200 199 199 198 198 200 202 203 203 202 199 195 195 199 200 198 201 206 213 218 221 228 237 234 238 256 275 291 299 307 316 318 317 319 320 320 320 316 312 312 310
335 336 338 340 341 340 339 336 330 323 311 295 277 261 248 240 234 229 224 218 215 214 213 212 212 211 211 212 213 214 214 213 213 211 210 210 209 207 204 202 202 202 202 202 200 200 199 199 199 199 198 198 199 199 196 190 188 188 190 193 202 210 213 217 222 231 239 238 244 257 269 278 287 298 306 310 312 315 314 313 314 314 310 307 304
331 333 335 337 339 339 337 335 331 327 321 307 287 268 255 245 238 231 224 219 216 214 212 211 211 210 209 210 211 213 215 214 212 211 210 209 208 207 204 202 201 202 203 202 201 201 201 201 201 199 196 196 198 198 195 189 186 187 190 196 203 207 210 213 213 219 228 235 244 254 266 284 291 294 300 308 314 315 311 304 304 306 307 305 303
327 330 332 333 335 335 335 333 330 327 323 312 295 278 263 251 242 234 227 222 219 217 215 213 211 210 209 208 209 212 214 212 209 210 209 207 205 204 202 200 199 199 200 201 202 202 202 201 199 199 198 197 196 197 195 190 187 187 191 196 202 206 209 211 211 218 227 233 245 260 274 285 289 290 296 305 308 307 305 300 299 305 310 308 305
325 328 329 329 330 330 331 330 327 325 321 311 299 287 273 259 248 238 229 224 221 218 216 214 213 211 209 208 209 210 210 209 208 207 205 201 199 200 200 198 197 198 198 199 201 201 201 200 199 198 198 197 194 194 194 192 190 190 191 195 199 204 209 212 215 223 230 236 248 260 267 275 283 287 290 296 301 306 307 302 302 308 312 309 305
322 324 324 324 324 325 326 326 324 321 316 308 300 291 279 266 254 242 231 227 224 221 218 216 215 213 211 210 209 208 208 207 205 204 201 197 197 197 196 195 195 196 196 197 199 200 199 199 199 198 197 196 192 188 189 192 192 190 190 191 193 201 208 208 210 218 224 229 233 236 250 267 276 274 275 282 294 301 300 295 297 301 300 295 297
320 321 319 319 319 320 321 322 320 316 311 304 298 290 280 268 257 246 236 231 228 225 220 216 215 214 213 212 210 208 208 205 203 202 199 197 197 196 192 191 192 193 193 193 194 195 196 196 197 199 199 195 189 184 184 190 192 188 186 186 191 202 206 204 206 213 215 221 229 238 251 262 263 266 278 290 297 298 297 294 294 293 289 288 293
319 318 316 315 315 316 318 318 317 314 309 303 297 290 281 269 256 246 238 233 230 227 223 218 217 215 213 212 210 208 208 205 202 201 198 197 198 195 191 190 190 189 188 187 188 191 193 193 193 197 199 195 189 184 184 188 191 188 187 192 197 199 200 200 204 209 212 221 237 246 251 255 262 275 290 300 302 303 302 298 291 284 283 286 288
317 316 314 311 311 312 314 315 315 312 307 301 294 286 277 266 255 245 237 231 228 226 223 219 218 217 214 212 210 209 209 206 202 200 198 197 198 195 192 192 191 188 186 187 189 190 190 190 190 194 198 194 188 185 185 186 188 189 191 197 199 195 196 201 201 202 213 227 238 244 249 259 271 284 297 303 306 310 309 303 293 285 281 281 282
316 315 311 308 308 310 311 312 313 311 306 299 290 281 274 261 250 242 234 228 224 223 222 219 218 217 215 213 211 209 210 208 203 201 200 199 198 195 195 196 194 190 187 188 190 190 189 190 191 192 192 189 185 186 187 186 188 191 194 197 196 193 196 200 199 203 216 226 234 245 255 266 278 291 301 306 310 314 313 305 296 290 285 280 277
315 312 307 305 306 308 308 308 309 307 303 296 285 277 270 257 246 238 230 224 220 220 220 217 215 215 214 213 212 210 209 207 205 202 202 202 199 196 197 200 198 194 192 190 191 192 191 191 190 187 186 185 184 185 186 186 189 193 194 192 190 190 192 195 197 204 215 223 235 249 258 268 282 296 305 311 315 315 311 305 300 297 293 288 283
313 308 304 303 305 306 305 305 303 301 298 291 279 270 263 252 241 233 226 221 217 216 217 214 211 211 212 213 212 210 208 206 205 204 204 204 200 194 196 202 201 197 197 195 193 192 191 190 188 185 183 184 183 183 184 186 188 190 189 188 188 189 191 194 198 205 215 225 236 247 256 268 287 301 309 314 315 311 308 305 303 302 298 294 291
307 303 302 303 304 304 303 301 298 295 292 284 271 263 257 246 235 226 219 215 213 214 214 213 212 213 212 212 212 210 207 206 206 205 204 205 203 194 193 200 201 198 198 197 193 192 191 188 185 183 182 182 182 182 183 185 187 188 186 185 187 190 193 197 201 208 217 225 233 242 253 270 289 303 310 313 311 308 307 307 306 306 305 302 300
301 299 299 300 301 302 300 298 295 292 287 278 267 260 253 244 234 223 214 211 213 214 213 214 215 217 218 216 212 208 205 205 207 206 203 206 206 197 191 196 199 197 196 196 192 188 186 182 179 180 182 183 183 181 181 183 184 182 181 184 189 194 199 202 204 209 215 221 228 239 252 272 289 301 306 307 306 306 308 310 308 307 308 307 304
299 297 296 297 298 298 296 293 292 289 283 275 265 258 251 243 235 224 214 209 210 212 213 213 214 216 219 219 213 207 205 204 206 206 204 205 207 199 191 192 193 191 190 190 185 180 178 176 177 179 179 179 180 179 179 179 176 176 181 189 197 202 206 208 207 207 211 215 223 237 255 275 287 295 301 304 306 308 311 311 306 303 306 307 303
299 297 295 294 293 292 290 289 288 285 280 272 263 255 248 239 232 228 221 214 210 210 210 211 214 215 215 213 208 204 205 208 207 205 201 201 204 200 192 187 187 186 186 183 178 175 174 172 174 176 173 171 172 175 177 178 176 179 185 192 197 202 204 201 199 200 204 209 219 234 253 273 283 293 303 306 307 311 314 311 304 301 303 304 300
297 295 294 292 289 287 285 284 283 281 278 273 265 258 251 243 236 235 233 226 222 219 215 215 217 216 213 210 204 198 205 214 213 207 202 200 200 200 193 188 187 186 182 177 171 168 167 168 171 171 167 165 167 171 176 179 180 185 190 193 196 198 196 192 193 195 196 202 215 229 249 272 284 296 307 307 307 312 314 309 302 299 300 299 294
294 292 291 290 287 285 282 280 279 278 276 274 269 264 259 251 243 241 240 236 232 230 228 227 226 222 217 216 213 210 213 218 215 208 204 202 202 202 197 190 187 182 174 170 167 165 164 167 169 170 169 169 170 172 176 180 182 186 190 193 195 193 191 191 191 188 189 198 212 229 251 275 291 302 308 306 306 310 310 304 298 296 296 295 293
289 288 288 287 286 286 284 281 280 277 274 272 270 267 264 258 249 244 242 241 238 234 233 235 234 228 223 221 221 219 218 218 212 205 203 203 203 204 199 190 184 178 171 167 166 166 168 170 172 174 175 175 174 175 179 182 184 185 186 189 192 191 189 189 186 186 192 200 208 229 257 280 296 304 306 304 303 303 302 300 297 294 294 294 292
282 283 284 284 284 283 281 280 279 276 271 269 267 262 260 260 256 249 243 240 238 236 234 234 234 231 226 223 221 218 215 212 206 201 200 201 202 203 200 190 182 177 173 170 170 173 175 173 172 174 175 176 178 180 182 183 184 185 184 184 187 189 188 186 185 189 195 199 208 233 264 288 298 302 302 300 297 295 294 295 295 295 296 296 293
279 279 280 282 282 279 277 275 274 272 269 267 265 260 256 253 255 255 247 239 237 237 236 235 234 232 228 223 219 217 214 209 203 198 198 199 200 201 199 190 180 176 175 173 172 174 175 173 173 176 178 180 182 182 183 184 185 185 185 185 186 186 184 183 186 192 196 202 220 246 273 288 294 297 298 296 293 292 291 292 295 297 297 296 297
277 277 279 279 277 273 270 269 272 274 273 269 264 260 254 249 249 252 248 240 235 234 235 235 233 231 229 225 219 215 211 206 202 199 198 198 199 199 196 189 183 180 180 178 175 172 172 174 178 180 181 183 182 181 183 186 186 185 185 186 184 181 179 181 188 195 200 208 228 251 269 283 291 295 294 294 294 292 291 292 294 295 295 296 299
277 278 279 278 274 270 273 279 284 284 282 277 270 263 254 247 245 244 240 235 232 229 229 229 228 228 227 225 221 216 209 203 200 200 199 198 199 197 193 188 185 184 182 179 176 174 175 178 181 181 182 182 181 182 183 184 186 186 184 182 179 177 179 185 192 199 207 218 236 254 270 286 295 296 293 292 292 290 289 291 292 292 294 296 298
278 278 279 279 278 278 281 282 280 276 273 271 270 266 256 245 240 239 237 235 232 230 229 226 224 225 225 225 221 216 209 204 200 200 199 198 197 196 193 189 186 183 179 176 176 176 180 182 181 179 180 180 180 181 182 183 184 185 183 180 179 179 182 189 194 202 215 230 247 265 280 290 294 297 296 293 291 289 289 291 292 292 294 296 297
279 277 277 277 276 275 274 273 270 269 267 265 263 261 254 245 238 235 234 232 229 230 229 223 217 218 222 223 220 215 209 205 201 201 200 198 197 197 195 191 185 179 174 175 176 176 178 179 178 177 178 179 179 180 182 183 183 182 181 181 182 183 185 191 197 207 223 241 258 273 284 288 293 299 299 293 291 291 291 292 293 293 295 298 298
279 276 275 275 275 275 276 275 274 272 270 268 267 261 250 241 235 232 231 229 227 226 224 218 211 208 212 216 214 210 205 202 200 201 202 200 199 199 196 190 184 178 174 175 176 174 172 175 178 179 179 179 179 180 180 181 181 181 181 181 183 184 188 193 198 210 229 249 265 274 278 284 294 302 301 293 290 291 292 293 295 295 297 299 298
277 276 277 277 278 278 278 276 273 268 264 265 269 267 253 238 230 227 226 225 224 221 217 214 212 210 209 208 203 199 197 196 196 199 199 198 199 199 194 186 181 176 173 172 172 171 171 174 177 178 178 178 179 179 179 179 180 181 182 183 184 186 189 194 200 209 224 246 261 268 275 285 296 302 300 294 291 292 293 293 294 296 298 299 299
280 280 280 280 278 276 274 272 271 268 262 257 258 258 251 238 228 225 223 221 220 219 214 212 212 210 207 202 195 191 191 192 195 196 195 196 198 197 189 182 176 169 166 166 168 171 174 174 175 175 176 177 179 179 179 180 180 181 183 186 186 187 189 194 201 208 223 246 260 268 277 288 296 300 300 298 296 295 293 292 294 296 296 297 301
282 281 279 278 276 274 272 268 265 265 264 260 254 247 241 235 229 225 223 220 219 217 214 214 213 209 204 200 195 191 190 192 194 195 194 194 192 186 179 175 168 162 162 166 171 174 174 173 173 174 175 177 178 178 179 181 182 182 185 187 188 191 194 197 202 214 233 251 265 276 283 291 298 299 299 299 298 295 292 292 294 295 295 298 306
280 277 276 275 273 270 269 267 262 259 262 265 259 244 233 229 226 224 222 220 219 217 214 214 213 207 203 202 198 195 193 194 194 190 185 182 177 169 165 164 161 162 168 173 174 174 173 172 172 174 175 176 178 179 180 182 183 184 187 189 192 196 199 200 207 223 240 256 273 283 287 294 299 298 297 297 297 294 293 293 294 294 297 304 311
276 272 270 269 266 264 264 266 263 257 255 260 259 247 234 227 223 222 220 219 217 216 214 211 206 200 198 200 201 197 191 185 181 175 168 163 160 156 155 157 160 166 172 173 173 174 173 172 172 174 176 178 179 180 182 183 183 186 190 192 198 203 205 209 218 230 244 265 281 287 291 297 300 298 299 300 297 294 294 294 294 296 303 309 312
278 273 271 268 266 264 262 261 259 257 255 255 253 246 235 226 220 217 216 216 216 214 210 202 193 187 188 195 196 187 170 160 161 160 155 153 151 151 152 157 161 165 167 168 170 173 173 172 172 174 176 178 179 180 181 182 185 191 194 197 203 208 210 219 230 238 254 273 284 292 297 301 301 300 299 299 297 295 294 293 294 302 309 311 310
282 276 271 266 263 263 261 258 256 258 257 251 243 234 225 219 215 212 211 209 206 200 191 182 175 170 168 170 167 156 147 147 151 150 148 148 148 150 154 159 162 163 164 167 170 172 172 173 173 173 175 177 177 177 178 182 187 193 199 205 210 213 219 231 241 249 266 278 289 298 300 301 301 300 299 298 298 296 293 292 298 306 310 309 307
289 281 274 269 266 264 264 263 261 257 251 239 225 215 209 207 205 203 200 194 183 170 157 148 145 144 142 141 141 141 141 142 142 142 144 147 148 150 154 157 159 161 163 165 167 169 171 173 173 173 173 174 175 176 180 185 189 194 201 210 217 224 233 240 248 262 274 283 292 298 300 299 301 301 301 301 299 294 289 294 305 310 308 305 304
301 298 296 296 292 285 281 278 269 255 238 218 199 187 180 179 177 172 164 154 142 132 124 121 123 126 126 128 131 133 135 137 138 139 142 145 147 149 152 154 156 158 160 162 164 166 169 170 172 172 172 173 175 178 181 185 190 197 205 215 225 235 244 251 260 270 278 286 293 295 296 298 301 302 303 302 297 291 292 303 311 310 306 303 303
321 321 324 330 334 334 336 340 357 57 84 97 106 109 113 118 116 112 112 112 112 113 113 113 114 116 118 121 126 130 133 135 136 137 139 143 146 148 150 152 154 155 156 158 160 163 166 167 169 170 171 173 177 180 182 187 194 201 210 223 236 245 254 262 267 273 282 289 290 289 294 300 301 300 300 296 290 290 303 311 311 307 304 302 302
342 343 347 353 1 9 17 28 43 57 68 81 86 86 89 95 97 98 102 104 105 109 113 114 115 117 119 122 126 131 133 134 135 136 139 143 145 146 147 149 151 152 154 156 158 160 163 164 166 169 172 175 178 182 185 192 201 209 219 235 246 252 260 267 271 280 286 286 286 292 300 301 297 295 293 289 288 300 312 313 309 305 303 301 302
358 1 3 6 12 20 31 43 52 59 67 78 82 82 84 88 91 95 102 104 105 107 111 115 118 121 124 126 129 132 135 136 137 138 140 142 143 144 145 147 148 150 153 156 158 160 162 165 167 170 173 176 180 186 191 199 210 219 229 240 249 256 264 270 276 281 282 283 294 304 301 294 291 290 288 288 298 312 315 312 307 305 302 300 303
9 13 15 17 20 26 34 43 50 57 65 73 79 83 86 86 87 91 98 102 105 108 111 115 118 120 123 127 130 134 137 139 139 139 140 141 141 143 144 146 148 151 154 157 159 161 164 166 168 170 174 178 183 191 199 207 218 228 238 247 255 262 271 277 280 283 286 292 298 297 291 288 290 291 289 294 309 318 315 310 307 304 300 301 306